QPF
0.00 0.00 0.00 0.00 0.00 0.00 0.00 0.00 0.00 0.00 0.00 0.00 0.00 0.00 0.00 0.00 0.00 0.00 0.00 0.00 0.00 0.00 0.00 0.00 0.00 0.00 0.00 0.00 0.00 0.00 0.00 0.00 0.00 0.00 0.00 0.00 0.00 0.00 0.00 0.00 0.00 0.00 0.00 0.00 0.00
0.00 0.00 0.00 0.00 0.00 0.00 0.00 0.00 0.00 0.00 0.00 0.00 0.00 0.00 0.00 0.00 0.00 0.00 0.00 0.00 0.00 0.00 0.00 0.00 0.00 0.00 0.00 0.00 0.00 0.00 0.00 0.00 0.00 0.00 0.00 0.00 0.00 0.00 0.00 0.00 0.00 0.00 0.00 0.00 0.00
0.00 0.00 0.00 0.00 0.00 0.00 0.00 0.00 0.00 0.00 0.00 0.00 0.00 0.00 0.00 0.00 0.00 0.00 0.00 0.00 0.00 0.00 0.00 0.00 0.00 0.00 0.00 0.00 0.00 0.00 0.00 0.00 0.00 0.00 0.00 0.00 0.00 0.00 0.00 0.00 0.00 0.00 0.00 0.00 0.00
0.00 0.00 0.00 0.00 0.00 0.00 0.00 0.00 0.00 0.00 0.00 0.00 0.00 0.00 0.00 0.00 0.00 0.00 0.00 0.00 0.00 0.00 0.00 0.00 0.00 0.00 0.00 0.00 0.00 0.00 0.00 0.00 0.00 0.00 0.00 0.00 0.00 0.00 0.00 0.00 0.00 0.00 0.00 0.00 0.00
0.00 0.00 0.00 0.00 0.00 0.00 0.00 0.00 0.00 0.00 0.00 0.00 0.00 0.00 0.00 0.00 0.00 0.00 0.00 0.00 0.00 0.00 0.00 0.00 0.00 0.00 0.00 0.00 0.00 0.00 0.00 0.00 0.00 0.00 0.00 0.00 0.00 0.00 0.00 0.00 0.00 0.00 0.00 0.00 0.00
0.00 0.00 0.00 0.00 0.00 0.00 0.00 0.00 0.00 0.00 0.00 0.00 0.00 0.00 0.00 0.00 0.00 0.00 0.00 0.00 0.00 0.00 0.00 0.00 0.00 0.00 0.00 0.00 0.00 0.00 0.00 0.00 0.00 0.00 0.00 0.00 0.00 0.00 0.00 0.00 0.00 0.00 0.00 0.00 0.00
0.00 0.00 0.00 0.00 0.00 0.00 0.00 0.00 0.00 0.00 0.00 0.00 0.00 0.00 0.00 0.00 0.00 0.00 0.00 0.00 0.00 0.00 0.00 0.00 0.00 0.00 0.00 0.00 0.00 0.00 0.00 0.00 0.00 0.00 0.00 0.00 0.00 0.00 0.00 0.00 0.00 0.00 0.00 0.00 0.00
0.00 0.00 0.00 0.00 0.00 0.00 0.00 0.00 0.00 0.00 0.00 0.00 0.00 0.00 0.00 0.00 0.00 0.00 0.00 0.00 0.00 0.00 0.00 0.00 0.00 0.00 0.00 0.00 0.00 0.00 0.00 0.00 0.00 0.00 0.00 0.00 0.00 0.00 0.00 0.00 0.00 0.00 0.00 0.00 0.00
0.00 0.00 0.00 0.00 0.00 0.00 0.00 0.00 0.00 0.00 0.00 0.00 0.00 0.00 0.00 0.00 0.00 0.00 0.00 0.00 0.00 0.00 0.00 0.00 0.00 0.00 0.00 0.00 0.00 0.00 0.00 0.00 0.00 0.00 0.00 0.00 0.00 0.00 0.00 0.00 0.00 0.00 0.00 0.00 0.00
0.00 0.00 0.00 0.00 0.00 0.00 0.00 0.00 0.00 0.00 0.00 0.00 0.00 0.00 0.00 0.00 0.00 0.00 0.00 0.00 0.00 0.00 0.00 0.00 0.00 0.00 0.00 0.00 0.00 0.00 0.00 0.00 0.00 0.00 0.00 0.00 0.00 0.00 0.00 0.00 0.00 0.00 0.00 0.00 0.00
0.00 0.00 0.00 0.00 0.00 0.00 0.00 0.00 0.00 0.00 0.00 0.00 0.00 0.00 0.00 0.00 0.00 0.00 0.00 0.00 0.00 0.00 0.00 0.00 0.00 0.00 0.00 0.00 0.00 0.00 0.00 0.00 0.00 0.00 0.00 0.00 0.00 0.00 0.00 0.00 0.00 0.00 0.00 0.00 0.00
0.00 0.00 0.00 0.00 0.00 0.00 0.00 0.00 0.00 0.00 0.00 0.00 0.00 0.00 0.00 0.00 0.00 0.00 0.00 0.00 0.00 0.00 0.00 0.00 0.00 0.00 0.00 0.00 0.00 0.00 0.00 0.00 0.00 0.00 0.00 0.00 0.00 0.00 0.00 0.00 0.00 0.00 0.00 0.00 0.00
0.00 0.00 0.00 0.00 0.00 0.00 0.00 0.00 0.00 0.00 0.00 0.00 0.00 0.00 0.00 0.00 0.00 0.00 0.00 0.00 0.00 0.00 0.00 0.00 0.00 0.00 0.00 0.00 0.00 0.00 0.00 0.00 0.00 0.00 0.00 0.00 0.00 0.00 0.00 0.00 0.00 0.00 0.00 0.00 0.00
0.00 0.00 0.00 0.00 0.00 0.00 0.00 0.00 0.00 0.00 0.00 0.00 0.00 0.00 0.00 0.00 0.00 0.00 0.00 0.00 0.00 0.00 0.00 0.00 0.00 0.00 0.00 0.00 0.00 0.00 0.00 0.00 0.00 0.00 0.00 0.00 0.00 0.00 0.00 0.00 0.00 0.00 0.00 0.00 0.00
0.00 0.00 0.00 0.00 0.00 0.00 0.00 0.00 0.00 0.00 0.00 0.00 0.00 0.00 0.00 0.00 0.00 0.00 0.00 0.00 0.00 0.00 0.00 0.00 0.00 0.00 0.00 0.00 0.00 0.00 0.00 0.00 0.00 0.00 0.00 0.00 0.00 0.00 0.00 0.00 0.00 0.00 0.00 0.00 0.00
0.00 0.00 0.00 0.00 0.00 0.00 0.00 0.00 0.00 0.00 0.00 0.00 0.00 0.00 0.00 0.00 0.00 0.00 0.00 0.00 0.00 0.00 0.00 0.00 0.00 0.00 0.00 0.00 0.00 0.00 0.00 0.00 0.00 0.00 0.00 0.00 0.00 0.00 0.00 0.00 0.00 0.00 0.00 0.00 0.00
0.00 0.00 0.00 0.00 0.00 0.00 0.00 0.00 0.00 0.00 0.00 0.00 0.00 0.00 0.00 0.00 0.00 0.00 0.00 0.00 0.00 0.00 0.00 0.00 0.00 0.00 0.00 0.00 0.00 0.00 0.00 0.00 0.00 0.00 0.00 0.00 0.00 0.00 0.00 0.00 0.00 0.00 0.00 0.00 0.00
0.00 0.00 0.00 0.00 0.00 0.00 0.00 0.00 0.00 0.00 0.00 0.00 0.00 0.00 0.00 0.00 0.00 0.00 0.00 0.00 0.00 0.00 0.00 0.00 0.00 0.00 0.00 0.00 0.00 0.00 0.00 0.00 0.00 0.00 0.00 0.00 0.00 0.00 0.00 0.00 0.00 0.00 0.00 0.00 0.00
0.00 0.00 0.00 0.00 0.00 0.00 0.00 0.00 0.00 0.00 0.00 0.00 0.00 0.00 0.00 0.00 0.00 0.00 0.00 0.00 0.00 0.00 0.00 0.00 0.00 0.00 0.00 0.00 0.00 0.00 0.00 0.00 0.00 0.00 0.00 0.00 0.00 0.00 0.00 0.00 0.00 0.00 0.00 0.00 0.00
0.00 0.00 0.00 0.00 0.00 0.00 0.00 0.00 0.00 0.00 0.00 0.00 0.00 0.00 0.00 0.00 0.00 0.00 0.00 0.00 0.00 0.00 0.00 0.00 0.00 0.00 0.00 0.00 0.00 0.00 0.00 0.00 0.00 0.00 0.00 0.00 0.00 0.00 0.00 0.00 0.00 0.00 0.00 0.00 0.00
0.00 0.00 0.00 0.00 0.00 0.00 0.00 0.00 0.00 0.00 0.00 0.00 0.00 0.00 0.00 0.00 0.00 0.00 0.00 0.00 0.00 0.00 0.00 0.00 0.00 0.00 0.00 0.00 0.00 0.00 0.00 0.00 0.00 0.00 0.00 0.00 0.00 0.00 0.00 0.00 0.00 0.00 0.00 0.00 0.00
0.00 0.00 0.00 0.00 0.00 0.00 0.00 0.00 0.00 0.00 0.00 0.00 0.00 0.00 0.00 0.00 0.00 0.00 0.00 0.00 0.00 0.00 0.00 0.00 0.00 0.00 0.00 0.00 0.00 0.00 0.00 0.00 0.00 0.00 0.00 0.00 0.00 0.00 0.00 0.00 0.00 0.00 0.00 0.00 0.00
0.00 0.00 0.00 0.00 0.00 0.00 0.00 0.00 0.00 0.00 0.00 0.00 0.00 0.00 0.00 0.00 0.00 0.00 0.00 0.00 0.00 0.00 0.00 0.00 0.00 0.00 0.00 0.00 0.00 0.00 0.00 0.00 0.00 0.00 0.00 0.00 0.00 0.00 0.00 0.00 0.00 0.00 0.00 0.00 0.00
0.00 0.00 0.00 0.00 0.00 0.00 0.00 0.00 0.00 0.00 0.00 0.00 0.00 0.00 0.00 0.00 0.00 0.00 0.00 0.00 0.00 0.00 0.00 0.00 0.00 0.00 0.00 0.00 0.00 0.00 0.00 0.00 0.00 0.00 0.00 0.00 0.00 0.00 0.00 0.00 0.00 0.00 0.00 0.00 0.00
0.00 0.00 0.00 0.00 0.00 0.00 0.00 0.00 0.00 0.00 0.00 0.00 0.00 0.00 0.00 0.00 0.00 0.00 0.00 0.00 0.00 0.00 0.00 0.00 0.00 0.00 0.00 0.00 0.00 0.00 0.00 0.00 0.00 0.00 0.00 0.00 0.00 0.00 0.00 0.00 0.00 0.00 0.00 0.00 0.00
0.00 0.00 0.00 0.00 0.00 0.00 0.00 0.00 0.00 0.00 0.00 0.00 0.00 0.00 0.00 0.00 0.00 0.00 0.00 0.00 0.00 0.00 0.00 0.00 0.00 0.00 0.00 0.00 0.00 0.00 0.00 0.00 0.00 0.00 0.00 0.00 0.00 0.00 0.00 0.00 0.00 0.00 0.00 0.00 0.00
0.00 0.00 0.00 0.00 0.00 0.00 0.00 0.00 0.00 0.00 0.00 0.00 0.00 0.00 0.00 0.00 0.00 0.00 0.00 0.00 0.00 0.00 0.00 0.00 0.00 0.00 0.00 0.00 0.00 0.00 0.00 0.00 0.00 0.00 0.00 0.00 0.00 0.00 0.00 0.00 0.00 0.00 0.00 0.00 0.01
MSLP
1018.63 1018.18 1017.74 1017.30 1016.77 1016.33 1015.80 1015.29 1014.47 1014.02 1013.60 1012.99 1012.71 1012.66 1012.45 1012.29 1012.07 1011.98 1010.45 1008.77 1008.72 1009.05 1009.34 1009.90 1010.04 1009.86 1009.82 1009.50 1009.39 1009.16 1008.28 1007.53 1007.31 1007.26 1007.23 1007.84 1007.95 1009.01 1009.36 1009.94 1010.78 1011.49 1011.79 1012.52 1014.14
1018.64 1018.21 1017.72 1017.03 1016.58 1016.04 1015.36 1014.81 1014.37 1013.69 1013.29 1012.72 1012.40 1012.32 1012.21 1011.99 1011.68 1010.24 1008.22 1008.38 1008.74 1008.84 1009.09 1009.25 1009.54 1009.57 1009.34 1009.20 1009.02 1008.35 1007.86 1007.38 1007.26 1007.14 1007.03 1007.58 1007.79 1008.62 1009.27 1009.97 1010.74 1011.73 1012.54 1013.30 1014.28
1018.56 1018.08 1017.64 1016.93 1016.44 1015.91 1015.30 1014.50 1013.93 1013.48 1012.83 1012.37 1012.08 1012.01 1011.96 1011.72 1010.77 1008.63 1008.02 1008.32 1008.64 1008.75 1008.80 1009.04 1009.27 1009.12 1008.89 1008.93 1008.71 1008.29 1007.41 1007.34 1006.95 1006.99 1007.07 1007.32 1007.99 1008.55 1009.04 1009.89 1010.41 1011.24 1012.30 1013.17 1013.90
1018.59 1018.10 1017.50 1016.98 1016.56 1016.03 1015.06 1014.29 1013.48 1013.13 1012.41 1012.10 1011.95 1011.76 1011.68 1011.35 1009.81 1008.12 1008.14 1008.53 1008.73 1008.69 1008.82 1008.93 1009.07 1008.77 1008.50 1008.37 1008.36 1007.92 1007.45 1007.19 1006.69 1006.97 1006.96 1007.02 1007.53 1008.35 1008.81 1009.54 1009.94 1010.84 1012.10 1012.85 1013.44
1018.64 1018.13 1017.42 1016.75 1016.08 1015.36 1014.63 1014.07 1013.22 1012.58 1011.97 1011.78 1011.70 1011.49 1011.47 1010.35 1008.61 1008.08 1008.16 1008.71 1008.86 1008.73 1008.63 1008.56 1008.61 1008.57 1008.05 1008.01 1008.11 1007.65 1007.10 1007.04 1006.86 1007.04 1006.76 1006.93 1007.23 1007.79 1008.79 1009.52 1009.99 1010.88 1012.14 1012.58 1012.98
1018.39 1017.81 1017.15 1016.50 1015.82 1014.94 1014.21 1013.50 1012.84 1012.18 1011.58 1011.46 1011.33 1011.33 1010.79 1009.41 1008.07 1008.19 1008.21 1008.66 1008.56 1008.58 1008.61 1008.50 1008.28 1008.30 1008.07 1007.87 1007.66 1007.09 1007.09 1006.89 1006.86 1006.94 1006.89 1006.83 1007.52 1007.87 1008.88 1009.44 1010.39 1011.16 1011.82 1012.38 1012.85
1018.30 1017.77 1017.17 1016.46 1015.60 1014.65 1013.56 1012.91 1012.44 1011.90 1011.38 1011.27 1011.17 1011.22 1010.34 1008.66 1008.06 1008.20 1008.33 1008.22 1008.50 1008.32 1008.30 1008.47 1008.27 1008.13 1008.01 1007.66 1007.45 1007.09 1006.94 1007.02 1006.90 1006.84 1006.83 1007.03 1007.53 1007.36 1008.58 1009.24 1010.22 1010.96 1011.59 1012.19 1012.71
1018.29 1017.80 1017.12 1016.33 1015.35 1014.22 1013.16 1012.65 1012.17 1011.74 1011.36 1011.27 1011.17 1010.97 1009.19 1008.08 1008.06 1008.21 1008.24 1008.31 1008.41 1008.49 1008.31 1008.24 1008.35 1008.11 1007.86 1007.75 1007.41 1006.87 1006.82 1006.48 1007.01 1007.06 1007.13 1006.83 1006.02 1006.84 1008.14 1008.88 1009.78 1010.62 1011.20 1011.73 1012.29
1018.23 1017.72 1017.01 1016.20 1015.24 1014.09 1012.80 1012.18 1011.70 1011.44 1011.34 1011.21 1011.13 1010.45 1008.45 1008.02 1007.90 1007.67 1007.75 1007.70 1008.08 1008.34 1008.38 1008.30 1008.19 1008.18 1007.91 1007.35 1007.05 1006.83 1006.19 1006.36 1006.84 1007.01 1006.85 1006.88 1006.19 1006.72 1007.78 1008.48 1009.12 1010.00 1010.70 1011.21 1011.47
1018.02 1017.55 1016.89 1016.08 1015.04 1013.92 1012.46 1011.64 1011.47 1011.39 1011.28 1011.07 1010.81 1010.34 1008.17 1007.79 1007.42 1007.51 1007.62 1007.56 1007.55 1007.91 1008.18 1008.18 1008.12 1007.98 1007.84 1007.25 1006.37 1006.27 1006.22 1006.40 1006.34 1006.69 1006.70 1006.63 1006.58 1007.07 1007.69 1008.26 1008.55 1009.22 1009.86 1010.35 1010.72
1017.87 1017.39 1016.72 1015.94 1014.95 1013.78 1012.49 1011.29 1011.86 1011.48 1011.23 1010.95 1010.33 1009.63 1008.40 1007.60 1007.31 1007.15 1007.31 1007.34 1007.32 1007.50 1007.56 1008.10 1007.68 1007.45 1007.43 1007.47 1007.16 1006.80 1006.37 1005.94 1006.31 1006.58 1006.63 1006.46 1006.52 1006.81 1007.61 1008.11 1008.20 1008.41 1008.97 1009.34 1009.57
1017.77 1017.34 1016.60 1015.68 1014.85 1013.95 1013.23 1013.55 1014.85 1015.09 1012.58 1010.07 1009.75 1009.24 1008.34 1007.98 1007.55 1006.82 1007.00 1006.89 1007.20 1007.29 1007.73 1007.97 1007.45 1007.60 1007.63 1007.59 1007.34 1007.08 1006.79 1006.59 1006.51 1006.73 1006.72 1006.44 1006.41 1006.49 1007.33 1007.17 1007.24 1007.63 1008.17 1008.32 1008.60
1017.71 1017.31 1016.56 1015.33 1014.63 1014.41 1014.78 1014.78 1015.03 1014.90 1013.52 1009.67 1008.78 1008.09 1007.50 1007.52 1006.96 1006.52 1006.66 1006.65 1006.94 1007.26 1007.52 1007.43 1007.45 1007.53 1007.54 1007.55 1007.37 1007.22 1006.90 1006.89 1006.63 1006.79 1006.99 1006.96 1006.59 1006.61 1006.69 1006.83 1007.07 1007.19 1007.40 1007.89 1007.73
1017.61 1017.28 1016.63 1015.35 1014.87 1015.60 1014.72 1014.87 1014.86 1014.71 1012.74 1009.28 1007.90 1006.97 1007.15 1006.95 1006.62 1006.25 1006.14 1006.21 1006.87 1007.08 1007.57 1007.46 1007.51 1007.42 1007.29 1007.11 1007.15 1006.88 1006.73 1006.79 1006.92 1006.98 1006.59 1006.95 1006.05 1006.11 1006.02 1006.17 1006.27 1006.27 1006.56 1006.59 1006.84
1017.40 1017.17 1016.87 1016.23 1016.38 1015.66 1014.71 1014.50 1014.40 1014.43 1011.40 1008.28 1007.10 1006.46 1006.71 1006.65 1006.18 1006.21 1006.22 1006.11 1006.47 1007.00 1007.50 1007.25 1007.17 1007.13 1006.84 1006.60 1006.84 1006.46 1006.68 1006.85 1006.92 1006.75 1006.68 1006.62 1006.21 1005.40 1005.62 1005.08 1004.77 1004.84 1005.00 1005.32 1005.60
1017.08 1016.93 1016.88 1016.57 1016.40 1015.22 1014.86 1014.36 1013.95 1013.09 1009.96 1007.58 1006.68 1006.42 1006.45 1006.14 1005.97 1006.15 1006.14 1006.31 1006.87 1007.07 1007.37 1007.15 1007.18 1006.83 1006.36 1006.38 1006.41 1006.43 1006.81 1007.22 1007.31 1006.78 1006.12 1005.57 1005.32 1004.40 1004.27 1003.61 1003.11 1003.14 1003.53 1003.88 1004.41
1016.78 1016.55 1016.72 1016.32 1015.57 1015.26 1014.71 1013.79 1013.20 1011.53 1009.20 1007.82 1006.82 1006.46 1006.13 1005.95 1005.93 1005.99 1006.17 1006.53 1006.72 1007.19 1007.12 1007.03 1006.81 1006.46 1006.33 1006.19 1006.33 1006.33 1006.39 1006.51 1006.51 1006.23 1005.23 1005.48 1005.12 1003.72 1003.16 1002.66 1002.33 1001.94 1002.30 1002.96 1003.60
1016.36 1016.16 1016.01 1015.63 1015.56 1015.28 1014.75 1013.81 1012.34 1010.22 1008.94 1007.87 1007.07 1006.56 1006.21 1006.00 1006.18 1006.24 1006.46 1006.86 1007.37 1007.26 1007.30 1007.02 1006.72 1006.42 1006.24 1005.88 1005.59 1005.88 1006.13 1005.69 1005.39 1005.43 1005.14 1005.46 1004.17 1002.82 1002.63 1002.49 1002.23 1002.26 1002.30 1002.54 1002.56
1015.93 1015.74 1015.52 1015.34 1015.34 1015.39 1014.54 1013.17 1011.37 1010.22 1009.21 1008.23 1007.25 1006.65 1006.44 1006.26 1006.19 1006.60 1007.07 1007.34 1007.57 1007.47 1007.52 1007.28 1006.90 1006.55 1006.24 1005.80 1005.74 1005.92 1006.04 1006.05 1005.73 1006.27 1005.56 1004.49 1003.90 1002.93 1002.41 1002.08 1002.02 1001.81 1002.15 1002.15 1001.93
1015.90 1015.76 1015.13 1015.09 1015.18 1014.94 1013.99 1012.44 1011.41 1010.51 1009.56 1008.69 1007.72 1007.18 1006.69 1006.51 1006.50 1006.90 1007.35 1007.85 1007.88 1007.91 1007.89 1007.61 1007.23 1006.72 1006.23 1006.11 1006.07 1005.84 1006.20 1006.19 1006.00 1005.54 1004.91 1004.12 1003.62 1002.61 1002.25 1001.71 1001.70 1001.82 1002.27 1002.52 1002.57
1015.92 1015.32 1014.90 1014.95 1015.15 1014.42 1013.22 1012.27 1011.28 1010.41 1009.97 1009.14 1008.30 1007.70 1007.22 1006.89 1006.86 1007.27 1007.93 1008.33 1008.42 1008.24 1008.09 1008.05 1007.90 1007.31 1006.87 1006.11 1005.74 1006.09 1005.98 1006.47 1006.47 1005.91 1004.84 1004.14 1003.07 1002.80 1002.48 1002.34 1002.18 1002.10 1002.79 1003.30 1003.69
1015.69 1015.19 1015.10 1015.09 1014.76 1014.33 1013.06 1012.23 1011.28 1010.38 1009.87 1009.29 1008.83 1008.25 1007.76 1007.44 1007.28 1007.48 1007.98 1008.41 1008.74 1008.60 1008.49 1008.89 1008.52 1007.55 1006.74 1006.64 1006.66 1006.29 1006.07 1006.30 1006.23 1006.13 1005.62 1004.76 1003.21 1002.85 1002.83 1002.87 1003.04 1003.03 1003.45 1004.26 1004.96
1015.33 1015.27 1015.09 1014.91 1014.15 1013.62 1012.88 1011.92 1011.11 1010.41 1010.01 1009.47 1008.93 1008.54 1008.13 1007.70 1007.82 1007.93 1008.37 1008.84 1008.87 1008.86 1009.11 1009.16 1009.10 1008.16 1007.11 1007.26 1007.00 1006.63 1006.58 1006.69 1006.77 1006.76 1005.64 1004.51 1003.14 1002.94 1003.09 1003.29 1003.64 1003.80 1004.20 1004.97 1005.63
1015.46 1015.18 1014.91 1014.54 1014.29 1013.56 1012.59 1011.70 1011.01 1010.34 1010.04 1009.63 1009.26 1008.85 1008.41 1008.12 1008.13 1008.21 1008.52 1009.05 1009.28 1009.45 1009.63 1009.53 1009.64 1008.89 1008.27 1007.98 1007.95 1007.24 1006.77 1006.53 1006.51 1006.08 1005.21 1004.49 1003.42 1002.70 1003.07 1003.59 1004.19 1004.77 1004.85 1005.47 1006.21
1015.30 1014.92 1014.83 1014.15 1013.87 1013.32 1012.76 1011.93 1011.08 1010.53 1010.11 1009.77 1009.43 1009.12 1008.71 1008.49 1008.35 1008.43 1008.82 1009.24 1009.63 1009.87 1009.96 1009.97 1009.84 1009.74 1009.08 1008.58 1008.34 1007.63 1007.03 1006.60 1006.35 1005.62 1005.20 1004.14 1003.96 1003.03 1003.42 1003.84 1004.47 1005.23 1005.63 1006.00 1006.71
1015.10 1015.10 1014.97 1014.31 1013.92 1013.31 1012.61 1011.74 1011.10 1010.61 1010.21 1009.56 1009.47 1009.08 1009.03 1008.76 1008.37 1008.52 1008.80 1009.16 1009.40 1009.96 1010.29 1010.65 1010.49 1010.27 1009.27 1008.79 1008.44 1007.91 1007.19 1006.51 1005.95 1005.52 1005.07 1004.54 1003.89 1003.53 1003.91 1004.32 1004.85 1005.38 1005.91 1006.45 1006.93
1015.55 1015.46 1014.74 1014.33 1013.77 1013.10 1012.31 1011.70 1011.11 1010.94 1009.96 1009.65 1009.51 1009.38 1009.30 1009.24 1009.07 1008.92 1009.15 1009.24 1009.44 1009.98 1010.61 1010.88 1010.73 1010.33 1009.37 1009.13 1008.58 1007.83 1007.29 1006.71 1006.07 1005.69 1005.35 1004.72 1004.05 1004.48 1004.50 1004.32 1004.63 1005.42 1006.32 1007.25 1008.05
Thickness
5701 5706 5712 5717 5723 5729 5735 5742 5751 5757 5762 5769 5772 5775 5779 5783 5787 5790 5801 5817 5818 5817 5814 5808 5805 5804 5804 5801 5804 5802 5788 5783 5789 5788 5796 5805 5800 5800 5803 5788 5787 5785 5781 5781 5770
5695 5700 5706 5715 5720 5726 5733 5740 5747 5754 5760 5767 5771 5774 5777 5781 5787 5796 5819 5819 5817 5817 5810 5804 5796 5799 5795 5795 5798 5796 5786 5791 5805 5807 5804 5806 5807 5798 5792 5785 5781 5777 5779 5778 5770
5691 5696 5701 5710 5715 5721 5728 5737 5745 5750 5758 5765 5769 5772 5775 5780 5790 5804 5817 5817 5816 5815 5813 5808 5803 5799 5792 5794 5793 5791 5790 5802 5810 5813 5814 5808 5802 5803 5792 5777 5784 5778 5776 5776 5771
5685 5690 5697 5703 5708 5713 5724 5733 5741 5747 5756 5762 5766 5770 5773 5779 5775 5806 5812 5811 5812 5813 5809 5801 5796 5790 5788 5786 5794 5788 5800 5807 5815 5814 5814 5809 5813 5796 5798 5791 5799 5793 5785 5779 5772
5680 5685 5692 5699 5706 5714 5723 5730 5737 5746 5755 5759 5762 5767 5771 5779 5787 5805 5808 5806 5807 5807 5802 5797 5792 5788 5786 5791 5791 5791 5801 5806 5814 5813 5818 5820 5809 5803 5795 5798 5801 5793 5783 5778 5776
5676 5683 5690 5697 5704 5713 5721 5729 5736 5745 5753 5756 5760 5762 5770 5766 5796 5799 5802 5801 5803 5801 5797 5798 5796 5797 5790 5789 5789 5802 5801 5804 5809 5808 5814 5812 5804 5806 5797 5801 5791 5784 5779 5780 5776
5672 5678 5684 5691 5700 5711 5723 5728 5735 5742 5748 5752 5756 5758 5762 5773 5790 5793 5796 5798 5800 5800 5792 5799 5802 5794 5793 5787 5798 5798 5792 5796 5801 5806 5806 5815 5793 5798 5801 5801 5788 5783 5781 5780 5777
5666 5672 5679 5687 5698 5710 5720 5725 5732 5738 5743 5747 5750 5753 5757 5782 5785 5787 5791 5791 5796 5797 5798 5802 5801 5794 5790 5795 5791 5789 5790 5784 5794 5801 5804 5811 5796 5811 5807 5799 5789 5785 5782 5780 5778
5659 5665 5674 5683 5694 5706 5718 5725 5731 5735 5739 5742 5746 5749 5752 5777 5775 5785 5789 5785 5787 5789 5793 5798 5795 5783 5786 5780 5776 5778 5775 5778 5781 5799 5800 5801 5798 5813 5808 5801 5794 5789 5785 5783 5783
5654 5660 5668 5678 5690 5702 5716 5725 5728 5731 5735 5738 5741 5739 5759 5756 5772 5777 5783 5784 5780 5780 5777 5780 5777 5772 5770 5771 5757 5768 5770 5773 5777 5792 5797 5794 5796 5803 5804 5799 5798 5796 5793 5789 5786
5648 5655 5663 5673 5685 5698 5711 5723 5719 5724 5727 5729 5735 5734 5745 5763 5772 5770 5776 5774 5775 5770 5760 5765 5764 5757 5764 5766 5768 5769 5772 5777 5780 5790 5788 5791 5795 5802 5800 5797 5798 5800 5797 5796 5795
5643 5649 5657 5669 5679 5690 5698 5694 5685 5687 5703 5730 5730 5732 5746 5754 5744 5762 5773 5760 5756 5747 5754 5754 5751 5761 5765 5763 5763 5763 5761 5764 5776 5781 5784 5788 5787 5801 5797 5802 5805 5803 5800 5802 5802
5636 5643 5651 5664 5675 5680 5677 5680 5682 5685 5690 5723 5732 5736 5747 5749 5743 5751 5762 5755 5747 5741 5743 5744 5752 5758 5756 5753 5752 5754 5759 5758 5767 5772 5774 5769 5769 5778 5795 5804 5806 5809 5809 5805 5807
5629 5635 5643 5657 5665 5662 5673 5676 5678 5682 5689 5716 5729 5740 5743 5745 5740 5758 5763 5757 5744 5739 5737 5743 5751 5748 5748 5749 5756 5746 5770 5768 5760 5757 5751 5766 5753 5766 5784 5790 5799 5807 5807 5810 5810
5622 5628 5634 5642 5645 5656 5668 5672 5676 5677 5673 5720 5726 5747 5740 5737 5742 5743 5758 5753 5736 5733 5737 5737 5740 5739 5742 5752 5756 5757 5765 5762 5759 5755 5753 5753 5753 5775 5776 5787 5802 5811 5816 5816 5818
5615 5621 5627 5633 5639 5653 5659 5667 5674 5670 5664 5706 5724 5723 5725 5734 5735 5739 5742 5750 5742 5732 5733 5738 5747 5749 5754 5758 5759 5766 5754 5746 5743 5747 5734 5762 5758 5770 5779 5800 5817 5825 5826 5825 5822
5608 5616 5620 5626 5642 5645 5653 5663 5657 5656 5695 5698 5706 5716 5720 5721 5725 5729 5726 5723 5721 5709 5714 5726 5733 5748 5754 5745 5752 5753 5745 5729 5724 5725 5732 5748 5742 5773 5792 5808 5821 5832 5833 5830 5827
5602 5611 5618 5625 5632 5639 5646 5651 5641 5673 5680 5700 5705 5709 5710 5718 5716 5718 5716 5712 5713 5717 5709 5707 5710 5734 5746 5745 5743 5742 5742 5733 5708 5720 5740 5738 5739 5772 5800 5809 5816 5820 5826 5829 5832
5597 5606 5614 5621 5626 5631 5641 5637 5656 5665 5679 5685 5700 5699 5701 5711 5715 5710 5705 5706 5709 5716 5705 5703 5707 5733 5739 5750 5750 5735 5730 5746 5726 5717 5723 5746 5757 5782 5797 5802 5809 5818 5819 5822 5832
5588 5596 5608 5614 5619 5626 5634 5636 5650 5662 5674 5681 5681 5693 5691 5701 5705 5704 5701 5706 5705 5711 5715 5713 5700 5722 5733 5740 5740 5740 5743 5724 5725 5705 5705 5733 5737 5755 5783 5797 5807 5810 5811 5813 5820
5580 5595 5602 5607 5612 5621 5628 5637 5646 5662 5666 5670 5676 5683 5691 5695 5702 5696 5691 5702 5705 5709 5715 5712 5706 5712 5720 5726 5728 5729 5729 5723 5723 5722 5715 5710 5734 5776 5779 5788 5794 5805 5803 5800 5802
5571 5587 5591 5598 5606 5606 5622 5630 5644 5655 5665 5668 5674 5679 5683 5690 5693 5695 5694 5699 5705 5708 5704 5702 5700 5701 5717 5723 5724 5728 5730 5727 5713 5709 5714 5715 5730 5777 5777 5782 5786 5792 5791 5788 5785
5567 5574 5583 5591 5600 5607 5617 5629 5642 5649 5654 5661 5666 5676 5683 5687 5683 5692 5692 5700 5702 5703 5701 5700 5686 5691 5706 5710 5717 5715 5720 5718 5708 5702 5707 5710 5730 5771 5773 5774 5777 5780 5781 5778 5776
5559 5571 5578 5587 5591 5600 5610 5622 5631 5647 5650 5659 5662 5671 5676 5679 5684 5683 5687 5692 5696 5695 5689 5695 5682 5689 5686 5691 5696 5701 5712 5718 5711 5701 5711 5717 5733 5762 5766 5763 5766 5766 5770 5769 5765
5551 5566 5572 5585 5589 5596 5605 5616 5625 5630 5645 5652 5655 5661 5668 5668 5674 5676 5681 5684 5688 5685 5687 5689 5681 5679 5688 5693 5692 5697 5703 5710 5703 5716 5704 5728 5723 5753 5758 5759 5759 5757 5758 5758 5754
5550 5559 5563 5576 5579 5588 5597 5612 5621 5630 5638 5648 5650 5661 5664 5667 5678 5671 5678 5680 5684 5684 5679 5675 5670 5670 5681 5688 5690 5689 5705 5712 5715 5716 5716 5722 5727 5754 5752 5755 5752 5750 5750 5747 5745
5537 5545 5562 5565 5576 5588 5600 5610 5618 5625 5641 5648 5652 5657 5658 5667 5674 5678 5679 5682 5684 5679 5671 5670 5668 5668 5672 5680 5684 5684 5699 5708 5712 5715 5715 5709 5736 5737 5740 5747 5749 5744 5740 5733 5727